DW2868 Weather Reports


time (UTC)temp
C
wind
direction
speed
KPH
gust
KPH
rain 1hr
cm
rain 24hr
cm
rain mn
cm
humidity
%
barometer
mb
20260507183056 22 281 3.2 8.0 0.00 0.00 0.00 65 1015.9
20260507181554 22 242 1.6 6.4 0.00 0.00 0.00 63 1016.0
20260507180106 22 264 0.0 6.4 0.00 0.00 0.00 65 1016.1
20260507174625 21 0 1.6 9.7 0.00 0.00 0.00 67 1016.2
20260507173057 20 279 0.0 4.8 0.00 0.00 0.00 70 1016.3
20260507171621 19 0 0.0 6.4 0.00 0.00 0.00 71 1016.3
20260507170100 18 0 0.0 6.4 0.00 0.00 0.00 74 1016.5
20260507164556 18 225 0.0 4.8 0.00 0.00 0.00 78 1016.6
20260507163059 17 0 0.0 4.8 0.00 0.00 0.00 80 1016.7
20260507161557 16 221 0.0 4.8 0.00 0.00 0.00 83 1016.9
20260507160116 16 211 0.0 3.2 0.00 0.00 0.00 85 1017.0
20260507154554 16 0 0.0 6.4 0.00 0.00 0.00 87 1017.0
20260507153053 15 0 0.0 0.0 0.00 0.00 0.00 89 1016.9
20260507151559 15 0 0.0 0.0 0.00 0.00 0.00 89 1016.9
20260507150058 14 0 0.0 0.0 0.00 0.00 0.00 90 1016.8
20260507144556 14 0 0.0 0.0 0.00 0.00 0.00 90 1016.8
20260507143113 13 0 0.0 4.8 0.00 0.00 0.00 90 1016.6
20260507141624 13 349 0.0 3.2 0.00 0.00 0.00 91 1016.5
20260507140113 13 349 1.6 4.8 0.00 0.00 0.00 91 1016.5
20260507134616 13 0 0.0 0.0 0.00 0.00 0.00 91 1016.3
20260507133106 13 0 0.0 0.0 0.00 0.00 0.00 91 1016.2
20260507131622 13 0 0.0 0.0 0.00 0.00 0.00 91 1016.3
20260507130108 13 0 0.0 0.0 0.00 0.00 0.00 91 1016.1
20260507124602 13 0 0.0 0.0 0.00 0.00 0.00 91 1015.9
20260507123106 13 0 0.0 0.0 0.00 0.00 0.00 91 1015.8
20260507121613 13 0 0.0 0.0 0.00 0.00 0.00 91 1015.8
20260507120059 13 0 0.0 0.0 0.00 0.00 0.00 91 1015.7
20260507114602 13 0 0.0 0.0 0.00 0.00 0.00 91 1015.8
20260507113128 12 0 0.0 0.0 0.00 0.00 0.00 91 1015.7
20260507111553 12 0 0.0 0.0 0.00 0.00 0.00 91 1015.8
20260507110058 12 0 0.0 0.0 0.00 0.00 0.00 91 1015.9
20260507104602 12 0 0.0 0.0 0.00 0.00 0.00 91 1016.0
20260507103054 12 0 0.0 0.0 0.00 0.00 0.00 90 1016.0
20260507101557 12 0 0.0 0.0 0.00 0.00 0.00 90 1016.2
20260507100101 12 0 0.0 0.0 0.00 0.00 0.00 90 1016.2
20260507094606 12 0 0.0 0.0 0.00 0.00 0.00 90 1016.5
20260507093057 12 0 0.0 0.0 0.00 0.00 0.00 90 1016.4
20260507091556 12 0 0.0 0.0 0.00 0.00 0.00 90 1016.6
20260507090053 12 0 0.0 0.0 0.00 0.00 0.00 90 1016.8
20260507084600 12 0 0.0 0.0 0.00 0.00 0.00 90 1016.8
20260507083054 13 0 0.0 0.0 0.00 0.00 0.00 89 1017.0
20260507081555 13 0 0.0 0.0 0.00 0.00 0.00 89 1017.1
20260507080053 13 0 0.0 0.0 0.00 0.00 0.00 89 1017.2
20260507074554 13 0 0.0 0.0 0.00 0.00 0.00 89 1017.4
20260507073057 13 0 0.0 0.0 0.00 0.00 0.00 89 1017.4
20260507071554 13 0 0.0 0.0 0.00 0.00 0.00 88 1017.5
20260507070108 13 0 0.0 0.0 0.00 0.00 0.00 88 1017.4
20260507064559 13 0 0.0 0.0 0.00 0.00 0.00 88 1017.6
20260507063056 14 0 0.0 0.0 0.00 0.00 0.00 87 1017.6
20260507061555 14 0 0.0 0.0 0.00 0.00 0.00 87 1017.6
20260507060100 14 0 0.0 0.0 0.00 0.00 0.00 87 1017.7
20260507054552 15 0 0.0 0.0 0.00 0.00 0.00 86 1017.6
20260507053057 15 0 0.0 0.0 0.00 0.00 0.00 86 1017.6
20260507051606 15 0 0.0 0.0 0.00 0.00 0.00 85 1017.5
20260507050108 15 0 0.0 0.0 0.00 0.00 0.00 85 1017.6
20260507044600 15 0 0.0 0.0 0.00 0.00 0.00 84 1017.4
20260507043057 15 0 0.0 0.0 0.00 0.00 0.00 83 1017.3
20260507041552 15 0 0.0 0.0 0.00 0.00 0.00 82 1017.3
20260507040106 15 0 0.0 1.6 0.00 0.00 0.00 82 1017.3
20260507034605 16 0 0.0 3.2 0.00 0.00 0.00 80 1017.2
20260507033100 16 0 0.0 3.2 0.00 0.00 0.00 78 1017.0
20260507031555 16 0 0.0 6.4 0.00 0.00 0.00 75 1016.9
20260507030056 17 0 0.0 4.8 0.00 0.00 0.00 72 1016.8
20260507024558 17 0 0.0 4.8 0.00 0.00 0.00 71 1016.7
20260507023054 17 0 0.0 6.4 0.00 0.00 0.00 70 1016.6
20260507021602 18 304 0.0 3.2 0.00 0.00 0.00 68 1016.5
20260507020057 18 296 1.6 6.4 0.00 0.00 0.00 68 1016.4
20260507014556 18 0 0.0 9.7 0.00 0.00 0.00 67 1016.4
20260507013056 19 320 0.0 6.4 0.00 0.00 0.00 66 1016.4
20260507011557 20 0 0.0 11.3 0.00 0.00 0.00 65 1016.3
20260507010057 20 0 1.6 9.7 0.00 0.00 0.00 65 1016.2
20260507004553 20 0 1.6 12.9 0.00 0.00 0.00 64 1016.2
20260507003054 20 0 3.2 14.5 0.00 0.00 0.00 63 1016.2
20260507001606 21 303 0.0 14.5 0.00 0.00 0.00 61 1016.0
20260507000057 20 277 1.6 19.3 0.00 0.00 0.00 61 1015.9
20260506234624 20 0 3.2 14.5 0.00 0.00 0.00 60 1015.8
20260506233100 20 263 3.2 16.1 0.00 0.00 0.00 60 1015.8
20260506231557 20 288 3.2 16.1 0.00 0.00 0.00 61 1015.8
20260506230100 20 290 0.0 14.5 0.00 0.00 0.00 64 1015.8
20260506224556 21 352 3.2 17.7 0.00 0.00 0.00 63 1015.9
20260506223100 21 315 4.8 17.7 0.00 0.00 0.00 63 1016.0
20260506221557 20 306 1.6 16.1 0.00 0.00 0.00 63 1016.1
20260506220058 20 288 3.2 14.5 0.00 0.00 0.00 64 1016.3
20260506214557 20 286 4.8 20.9 0.00 0.00 0.00 63 1016.3
20260506213054 21 305 4.8 16.1 0.00 0.00 0.00 63 1016.4
20260506211553 21 281 3.2 16.1 0.00 0.00 0.00 61 1016.5
20260506210058 20 304 4.8 20.9 0.00 0.00 0.00 62 1016.7
20260506204559 21 309 4.8 16.1 0.00 0.00 0.00 62 1016.7
20260506203056 21 279 1.6 14.5 0.00 0.00 0.00 62 1016.7
20260506201557 20 315 1.6 16.1 0.00 0.00 0.00 63 1017.0
20260506200109 21 296 3.2 17.7 0.00 0.00 0.00 61 1017.0
20260506194616 21 281 3.2 19.3 0.00 0.00 0.00 59 1017.2
20260506193058 21 306 1.6 11.3 0.00 0.00 0.00 59 1017.2
20260506191555 21 302 1.6 12.9 0.00 0.00 0.00 58 1017.3
20260506190055 21 290 1.6 14.5 0.00 0.00 0.00 59 1017.4
20260506184605 21 300 0.0 12.9 0.00 0.00 0.00 60 1017.6